User: anonymous   Login
Location: Unspecified
(0.0000°N, 0.0000°E)
Time: 23:20:15
(UTC+00:00)
Language:

STUDSAT - Orbit

View from above orbital plane
View from above orbital plane
View from above satellite
View from above satellite

Ground track
Ground track

The orbit data is extracted from the following two-line orbital elements,

1 36796U 10035B   17141.85303805 +.00000351 +00000-0 +45435-4 0  9990
2 36796 098.0258 254.6809 0014194 069.6794 290.5945 14.87091919371430
Epoch (UTC): 21 May 2017 20:28:22
Eccentricity: 0.0014194
inclination: 98.0258°
perigee height: 597 km
apogee height: 617 km
right ascension of ascending node: 254.6809°
argument of perigee: 69.6794°
revolutions per day: 14.87091919
mean anomaly at epoch: 290.5945°
orbit number at epoch: 37143

The dashed part of the orbit path shows where the satellite is in the earth's shadow,  

DLR